Location: Caltech
(34.1382°N, 118.1253°W)
Time: 05:16:25
(UTC-07:00)

Daily predictions for brighter satellites

Satellite Brightness Start Highest point End
(mag) Time Altitude Azimuth Time Altitude Azimuth Time Altitude Azimuth
CZ-2C R/B 3.2 00:10:46 10° NNE 00:14:48 53° N 00:14:48 53° N
Cosmos 2263 Rocket 3.7 00:36:10 27° WNW 00:36:47 27° WNW 00:41:31 10° N
Cosmos 2285 Rocket 4.4 00:36:13 10° NNW 00:41:30 55° WNW 00:41:30 55° WNW
CZ-4C R/B 3.0 00:49:05 44° NE 00:49:05 44° NE 00:52:59 10° NNE
Cosmos 968 Rocket 4.4 00:54:05 45° N 00:54:05 45° N 00:57:46 10° NNE
Cosmos 2034 Rocket 4.4 00:48:20 10° NNW 00:53:48 54° WNW 00:53:48 54° WNW
Lacrosse 5 4.0 00:50:51 10° NW 00:52:19 18° WNW 00:52:19 18° WNW
Meteor 2-10 Rocket 4.4 00:52:30 10° N 00:56:28 49° NNE 00:56:28 49° NNE
Cosmos 1844 Rocket 3.3 01:13:39 53° N 01:13:39 53° N 01:18:00 10° NNE
Cosmos 1634 Rocket 4.2 01:29:30 10° N 01:34:51 63° NW 01:34:51 63° NW
Cosmos 2278 Rocket 2.4 01:55:45 65° N 01:55:45 65° N 02:00:38 10° NNE
Cosmos 1680 Rocket 4.3 01:52:50 10° N 01:57:49 47° ENE 01:57:49 47° ENE
CZ-2D R/B 4.4 01:55:07 10° ENE 01:57:55 14° E 01:58:44 14° ESE
ATLAS 3B R/B 3.7 01:59:56 35° ESE 02:00:32 36° ESE 02:07:03 10° NE
ADEOS Rocket 4.4 01:55:44 10° NNE 02:02:28 34° E 02:04:21 30° ESE
Meteor 1-10 Rocket 4.4 02:01:17 10° N 02:06:56 72° ENE 02:06:56 72° ENE
COSMOS 2406 4.4 02:02:43 10° NW 02:06:04 31° WNW 02:06:04 31° WNW
Cosmos 1833 Rocket 4.5 02:06:55 10° N 02:11:41 27° ENE 02:15:20 15° ESE
Cosmos 2297 4.0 02:12:57 60° E 02:12:57 60° E 02:18:11 10° NNE
Cosmos 1898 Rocket 4.1 02:15:15 50° ENE 02:15:15 50° ENE 02:19:44 10° NNE
Helios 1A Rocket 4.3 02:12:18 10° NNE 02:14:50 36° N 02:14:50 36° N
Cosmos 1607 3.9 02:17:12 74° ESE 02:17:12 74° ESE 02:23:22 10° NNE
Timation 1 Rocket 4.4 02:19:02 66° WNW 02:19:02 66° WNW 02:24:56 10° NNE
NPP 4.0 02:13:47 10° NNE 02:18:55 54° E 02:18:55 54° E
IRS-P3 4.3 02:17:11 10° NNE 02:22:18 64° E 02:22:18 64° E
Cosmos 1932 4.3 02:26:04 78° S 02:26:30 85° ESE 02:33:04 10° NNE
Cosmos 1825 4.2 02:29:24 25° NNW 02:29:24 25° NNW 02:31:10 10° N
ARIANE 5 R/B 4.0 02:26:38 10° NE 02:30:43 25° E 02:31:26 24° ESE
Nadezhda 4 Rocket 3.9 02:31:43 67° WSW 02:32:02 68° W 02:38:20 10° N
SeaSat 1 2.5 02:32:17 75° NE 02:32:17 75° NE 02:37:02 10° NNW
Cosmos 2082 Rocket 3.2 02:27:08 10° N 02:32:28 43° ENE 02:35:11 26° ESE
SL-16 R/B 3.8 02:29:10 16° SE 02:33:24 36° ENE 02:38:59 10° N
Cosmos 44 3.6 02:36:20 60° NE 02:36:20 60° NE 02:40:06 10° NNE
GP-B 3.8 02:31:58 10° NNE 02:35:53 48° ENE 02:35:53 48° ENE
Cosmos 44 Rocket 3.5 02:37:19 67° N 02:37:19 67° N 02:41:32 10° NNE
CZ-4C R/B 4.4 02:34:14 11° WNW 02:36:43 14° NW 02:39:50 10° N
CBERS-1 4.0 02:32:04 10° NNE 02:37:08 75° E 02:37:08 75° E
Meteor 1-27 Rocket 3.8 02:31:55 10° N 02:37:53 79° E 02:38:41 66° SE
AQUA 4.0 02:34:21 10° NNE 02:38:46 65° ENE 02:38:46 65° ENE
Aureole 1 Rocket 4.4 02:34:19 10° NNW 02:41:22 86° WSW 02:44:17 45° SSE
Meteor 2-6 Rocket 4.4 02:37:01 10° NNW 02:42:04 57° WNW 02:42:04 57° WNW
COSMOS 2487 4.5 02:39:25 10° N 02:42:09 27° ENE 02:42:09 27° ENE
Cosmos 858 Rocket 4.4 02:45:35 87° NNW 02:45:35 87° NNW 02:50:43 10° NNE
USA 238 DEB 4.0 02:45:33 46° SSE 02:47:06 54° ESE 02:53:52 10° NE
USA 238 4.1 02:45:38 45° SSE 02:47:12 54° ESE 02:53:57 10° NE
Cosmos 2298 Rocket 3.9 02:53:37 77° WSW 02:53:49 79° WNW 02:59:10 10° NNE
Cosmos 1733 Rocket 3.9 03:00:17 40° NW 03:00:17 40° NW 03:03:41 10° N
CBERS 1 LM4 rocket 4.5 03:01:10 10° NNE 03:06:07 67° ESE 03:06:51 58° SSE
Cosmos 2150 Rocket 4.0 03:05:49 63° WSW 03:06:26 69° WNW 03:11:54 10° NNE
SL-08 R/B 3.3 03:06:39 69° W 03:06:39 69° W 03:11:27 10° NNW
Sich 1 Rocket 3.5 03:08:58 79° SSE 03:09:14 84° E 03:13:49 10° N
BREEZE-M DEB (TANK) 3.2 03:13:06 35° NE 03:13:06 35° NE 03:15:38 10° NE
UNKNOWN OBJECT B 3.9 03:17:25 10° NNE 03:20:51 34° E 03:21:30 32° ESE
Timation 2 Rocket 4.1 03:17:36 10° NNW 03:23:41 74° ENE 03:29:59 10° SSE
ADEOS 3.5 03:19:49 10° NNE 03:25:04 87° E 03:26:39 47° S
Cosmos 1417 Rocket 4.5 03:21:24 10° N 03:27:33 81° E 03:31:16 25° S
NOSS 3-2 (A) 4.0 03:26:21 31° SSE 03:28:51 48° ESE 03:34:54 10° NE
USA 267 3.2 03:22:49 10° NE 03:29:21 80° NW 03:32:18 36° SW
Resurs 1-4 Rocket 2.1 03:24:07 10° N 03:29:25 71° WNW 03:30:55 47° SW
Cosmos 1340 4.3 03:26:23 10° NNW 03:28:22 24° NW 03:28:22 24° NW
Cosmos 1674 Rocket 4.4 03:28:54 10° NNW 03:32:34 35° WNW 03:32:34 35° WNW
Meteor 1-20 Rocket 4.4 03:34:44 30° S 03:37:43 75° E 03:43:33 10° NNE
Cosmos 1908 Rocket 4.1 03:37:34 40° W 03:37:49 40° W 03:42:00 10° N
CZ-2D R/B 2.3 03:33:00 10° N 03:38:17 59° WNW 03:40:03 40° SW
Okean 2 Rocket 3.1 03:38:38 40° S 03:40:10 76° E 03:44:34 10° N
Okean 3 3.7 03:40:49 10° NNW 03:44:52 46° W 03:45:09 45° WSW
Cosmos 405 Rocket 4.4 03:43:14 10° NNE 03:46:51 32° ENE 03:50:22 10° SE
ADEOS Rocket 4.1 03:40:51 10° N 03:47:53 42° WNW 03:51:18 26° WSW
UNK 4.1 03:48:48 40° SW 03:49:41 45° W 03:54:10 10° NNW
Cosmos 2369 Rocket 2.4 03:47:36 26° S 03:50:43 66° ESE 03:56:17 10° NNE
ATLAS 3B R/B 3.5 03:47:11 25° WSW 03:51:07 44° NW 03:57:59 10° NNE
CCE 1 Rocket 3.8 03:52:43 39° S 03:52:43 39° S 03:56:21 10° ESE
Cosmos 1812 2.6 03:50:18 10° N 03:54:08 74° W 03:55:25 40° S
Cosmos 1833 Rocket 3.3 03:50:31 10° NW 03:55:35 35° WSW 03:56:56 31° SW
Cosmos 1943 Rocket 3.4 03:51:15 13° SSE 03:55:46 37° ESE 04:00:54 10° NE
Cosmos 1378 Rocket 4.1 03:51:54 10° NNW 03:55:53 37° W 03:56:27 35° WSW
OAO 1 4.5 03:54:59 31° WSW 03:57:40 76° SSE 04:03:09 10° E
GPS 2-05 Rocket1 2.6 03:58:13 56° WSW 03:58:41 65° SSW 04:02:06 10° ESE
Cosmos 1553 Rocket 4.0 03:53:09 10° NNW 03:59:28 67° W 04:04:23 18° S
Cosmos 1782 Rocket 4.2 03:59:12 33° WSW 04:00:20 40° W 04:04:33 10° N
Delta 2 Rocket 3.5 03:57:10 15° W 04:01:14 71° SSW 04:05:39 10° ESE
Meteor 1-25 Rocket 4.3 03:58:58 29° SSW 04:01:40 58° W 04:07:12 10° N
Cosmos 1346 2.6 04:03:32 10° N 04:06:15 87° W 04:06:46 54° S
Cosmos 1125 Rocket 3.5 04:03:33 27° SSW 04:06:25 72° WNW 04:11:44 10° NNE
Cosmos 1602 4.2 04:05:24 19° S 04:08:05 61° E 04:11:58 10° NNE
BREEZE-M DEB (TANK) 3.9 04:05:11 10° NW 04:09:36 42° NNE 04:12:13 10° E
ARIANE 5 R/B 3.5 04:05:28 10° N 04:09:46 30° WNW 04:11:46 22° WSW
CZ-3A R/B 3.9 04:06:35 23° SW 04:10:49 38° S 04:45:51 10° ESE
Okean O Rocket 3.3 04:08:02 10° NE 04:11:55 30° E 04:15:48 10° SSE
CZ-2D R/B 3.9 04:11:11 10° N 04:15:26 51° WNW 04:17:46 25° SW
Cosmos 2082 Rocket 3.4 04:12:06 10° NW 04:16:10 21° W 04:16:56 20° WSW
SL-16 R/B 3.3 04:14:15 22° SW 04:16:57 31° W 04:22:22 10° NW
MOZ.5/SAFIR/RUBIN 5/SL-8 3.9 04:14:21 16° S 04:18:05 56° W 04:22:45 10° NNW
Okean 1 3.3 04:16:01 10° NNW 04:20:03 67° W 04:23:26 14° S
Gbstr 26 Del rocket 3.0 04:18:28 25° SSW 04:20:24 53° SE 04:24:06 10° NE
ASTRO E2 3.5 04:19:24 25° SSW 04:20:56 35° SSE 04:24:35 10° E
CZ-4B R/B 3.9 04:17:59 10° NNE 04:21:27 38° E 04:24:49 10° SSE
MOS 1 Rocket 4.2 04:18:20 10° N 04:23:21 41° WNW 04:26:33 20° SW
Cosmos 2151 Rocket 3.7 04:24:21 17° SSW 04:27:42 64° W 04:32:13 10° N
ADEOS II 2.4 04:23:29 10° NNE 04:28:43 65° ESE 04:33:55 10° S
GENESIS II 4.2 04:30:44 19° SSW 04:33:29 80° WNW 04:37:32 10° NNE
Cosmos 1975 Rocket 4.2 04:31:09 10° NW 04:34:40 25° W 04:36:44 17° SW
Cosmos 1269 Rocket 4.0 04:30:17 10° NNW 04:35:37 87° WSW 04:40:54 10° SSE
CZ-3B DEB 3.9 04:27:44 10° NW 04:40:49 73° SW 04:50:28 10° SSE
Cosmos 2344 4.0 04:35:27 15° SW 04:41:46 54° NW 04:49:53 10° NNE
BREEZE-M DEB (TANK) 3.7 04:35:43 12° WSW 04:42:42 40° NW 04:45:39 10° NNE
USA 161 1.8 04:43:04 22° SW 04:43:51 28° W 04:45:57 10° NW
Meteor 1-11 Rocket 3.7 04:39:10 10° SSW 04:44:48 75° W 04:50:36 10° N
Meteor 1-13 Rocket 4.2 04:40:16 10° N 04:45:48 83° W 04:51:22 10° S
Meteor 2-4 Rocket 4.0 04:44:14 10° N 04:49:52 71° E 04:55:19 10° SSE
Landsat 4 3.8 04:46:37 10° SSE 04:50:25 82° ENE 04:54:14 10° N
CZ-4B R/B 3.5 04:45:59 10° NNE 04:51:32 73° ESE 04:57:09 10° S
Cosmos 2315 Rocket 4.0 04:47:10 10° N 04:53:26 70° W 04:59:37 10° S
Cosmos 1633 4.3 04:54:23 12° WSW 04:56:25 17° WNW 04:58:53 10° NW
Cosmos 1441 Rocket 3.5 04:52:50 10° NNW 04:56:43 50° W 05:00:34 10° S
Cosmos 1536 Rocket 3.8 04:53:04 10° NNW 04:57:23 50° W 05:01:41 10° SSW
IRS-1C Rocket 4.2 04:55:20 10° NNE 05:00:38 87° ESE 05:05:53 10° SSW
BREEZE M DEB (TANK) 3.3 04:59:06 10° W 05:00:48 20° NNW 05:03:00 10° NNE
Meteor 1-5 Rocket 4.4 04:57:59 10° S 05:03:55 88° E 05:09:56 10° N
PSLV R/B 3.4 05:02:47 10° WSW 05:06:03 68° NNW 05:09:22 10° ENE
Okean 1-7 Rocket 4.4 05:01:56 10° N 05:06:21 56° E 05:10:42 10° SSE
Cosmos 1025 Rocket 3.9 05:03:37 10° N 05:07:56 55° E 05:12:15 10° SSE
COSMOS 2455 3.2 05:02:19 10° SW 05:08:10 53° WNW 05:14:03 10° NNE
CZ-2C R/B 4.3 05:07:31 10° SSE 05:12:14 66° ENE 05:16:58 10° N
SL-08 R/B 4.5 05:09:30 10° S 05:15:35 84° W 05:21:44 10° N
NOSS 3-2 (C) 4.4 05:12:12 10° WSW 05:17:39 35° NW 05:23:32 10° NNE
